Total_Precipitation_Accumulation
1.91 2.37 2.93 3.78 4.88 5.86 6.17 5.69 5.23 4.98 4.61 4.25 3.67 3.39 3.53 3.48 3.26 2.91 2.54 2.50 2.40 2.49 2.79 2.54 2.76 2.59 2.75 2.88 3.01 3.23 3.28 3.14 3.24 3.46 3.42 2.99 2.59 2.54 2.48 2.60 2.90 2.78 2.71
2.12 2.83 3.85 4.42 4.71 4.88 4.64 4.33 4.15 4.01 3.52 3.27 3.21 3.04 3.12 2.86 2.72 2.62 2.72 2.32 2.17 2.27 2.28 2.66 2.64 2.67 2.92 2.93 2.93 3.16 3.11 2.98 3.07 3.39 3.64 3.29 3.01 2.56 2.00 2.19 2.27 2.40 2.68
2.31 3.13 3.71 3.83 3.58 3.26 3.13 3.11 3.25 3.06 2.96 3.06 3.03 2.96 3.06 2.77 2.59 2.56 2.70 2.30 1.99 1.98 2.10 2.27 2.50 2.74 2.63 2.83 2.94 2.87 3.03 3.10 3.04 3.06 3.57 3.53 3.23 2.78 2.21 1.98 2.10 2.33 2.65
1.85 2.29 2.56 2.45 2.54 2.67 2.68 2.83 2.96 2.75 2.80 2.84 2.63 2.55 2.49 2.38 2.36 2.42 2.53 2.56 2.10 1.92 1.93 2.04 2.27 2.50 2.39 2.70 2.49 2.71 3.11 3.15 2.93 2.88 2.87 2.93 3.06 3.11 2.67 2.22 1.98 2.10 2.29
1.33 1.46 1.57 1.67 1.86 1.99 2.16 2.45 2.74 2.76 2.65 2.53 2.53 2.57 2.41 2.41 2.39 2.41 2.51 2.60 2.39 2.09 1.87 1.97 2.21 2.34 2.30 2.39 2.46 2.88 2.92 2.90 2.90 2.91 2.93 2.89 2.86 2.76 2.73 2.48 2.16 1.98 1.77
1.19 1.29 1.29 1.38 1.56 1.71 1.93 2.19 2.58 2.72 2.69 2.53 2.44 2.46 2.51 2.52 2.46 2.50 2.49 2.31 2.28 2.25 2.05 2.06 2.23 2.21 2.22 2.29 2.36 2.67 2.68 2.86 3.01 3.03 2.91 2.97 2.82 2.71 2.88 2.50 2.15 1.98 1.48
1.10 1.29 1.31 1.28 1.35 1.50 1.63 1.74 2.03 2.34 2.49 2.42 2.38 2.36 2.52 2.44 2.26 2.20 2.18 2.16 1.95 1.90 1.97 2.06 2.25 2.13 2.13 2.22 2.51 2.67 2.65 2.81 2.86 2.81 2.75 2.76 2.52 2.56 2.70 2.53 2.04 1.87 1.50
1.03 1.15 1.20 1.16 1.22 1.29 1.45 1.61 1.94 2.13 2.31 2.34 2.33 2.35 2.42 2.30 2.13 2.18 2.00 1.98 1.91 1.82 1.90 2.01 2.01 2.00 2.07 2.11 2.57 2.46 2.54 2.71 2.63 2.43 2.74 2.62 2.29 2.52 2.63 2.66 2.76 2.37 1.99
0.86 0.97 1.01 1.17 1.25 1.23 1.38 1.53 1.81 2.17 2.40 2.50 2.57 2.52 2.49 2.45 2.39 2.32 2.09 1.90 2.03 1.91 2.00 2.08 2.07 2.09 2.27 2.43 2.66 2.48 2.52 2.69 2.50 2.48 2.74 2.57 2.34 2.44 2.50 2.70 3.00 3.05 2.58
0.85 1.06 1.25 1.34 1.23 1.11 1.22 1.36 1.65 2.14 2.43 2.60 2.57 2.43 2.61 2.50 2.47 2.37 2.15 1.98 1.98 2.03 2.16 2.29 2.27 2.33 2.37 2.49 2.62 2.41 2.53 2.58 2.47 2.56 2.77 2.71 2.52 2.61 2.59 2.70 2.92 3.15 3.02
0.88 1.12 1.41 1.45 1.27 1.09 1.06 1.21 1.59 1.92 2.17 2.37 2.45 2.31 2.27 2.21 2.22 2.23 2.17 2.11 2.12 2.10 2.11 2.23 2.28 2.26 2.31 2.43 2.54 2.33 2.41 2.42 2.46 2.47 2.61 2.68 2.91 2.92 2.87 3.01 3.04 3.09 3.16
0.98 1.03 1.20 1.37 1.28 1.20 1.16 1.36 1.65 1.83 1.94 2.06 2.11 2.09 2.09 2.09 2.02 1.97 2.05 2.12 2.04 1.94 2.00 2.08 2.09 2.02 2.15 2.35 2.36 2.23 2.33 2.40 2.38 2.56 2.83 2.76 2.90 2.97 3.05 3.20 2.99 3.04 3.38
0.84 0.89 1.02 1.16 1.27 1.24 1.26 1.47 1.72 1.77 1.81 1.78 1.86 1.86 1.89 1.88 1.85 1.85 1.92 2.01 2.03 2.02 2.05 2.06 2.00 1.98 2.05 2.19 2.18 2.33 2.45 2.46 2.52 2.70 2.82 2.92 3.25 3.06 3.10 3.09 2.96 2.99 3.23
0.86 0.88 0.97 1.17 1.24 1.30 1.31 1.38 1.58 1.74 1.71 1.67 1.79 1.94 2.02 2.08 2.06 1.98 2.02 2.13 2.26 2.25 2.30 2.29 2.28 2.32 2.28 2.27 2.34 2.50 2.59 2.62 2.64 2.81 2.88 2.95 3.09 3.17 3.36 3.33 3.35 3.49 3.65
0.87 0.87 0.95 1.13 1.27 1.45 1.52 1.52 1.56 1.63 1.78 1.93 2.05 2.32 2.50 2.50 2.36 2.30 2.36 2.39 2.46 2.40 2.59 2.60 2.59 2.70 2.66 2.44 2.62 2.73 2.72 2.93 2.87 2.92 2.86 2.86 3.08 3.23 3.38 3.19 3.37 3.73 3.88
0.87 0.82 0.91 1.13 1.20 1.26 1.38 1.43 1.50 1.59 1.69 1.82 1.98 2.25 2.50 2.64 2.58 2.59 2.73 2.74 2.69 2.77 2.88 2.85 2.84 2.81 2.47 2.69 2.87 2.91 3.00 3.10 3.04 2.98 3.00 2.95 2.98 2.92 2.91 2.92 3.06 3.33 3.50
0.91 0.90 0.88 1.00 1.23 1.19 1.23 1.38 1.49 1.67 1.86 2.13 2.34 2.48 2.70 2.85 2.79 2.69 2.70 2.72 2.77 2.76 2.82 2.86 2.94 2.76 2.71 2.84 2.67 2.71 2.71 2.81 2.91 2.96 3.00 2.75 2.59 2.79 2.58 2.71 2.82 2.77 2.79
1.20 1.24 1.28 1.28 1.38 1.36 1.38 1.48 1.64 1.85 1.97 2.10 2.32 2.49 2.69 2.80 2.87 2.89 2.83 2.90 3.03 3.06 3.08 3.07 3.05 2.95 2.77 2.75 2.54 2.65 2.53 2.55 2.60 2.67 2.74 2.72 2.60 2.59 2.70 2.69 2.56 2.29 2.21
1.27 1.38 1.45 1.48 1.50 1.58 1.73 1.92 2.00 2.18 2.36 2.47 2.64 2.73 2.76 2.83 2.87 2.91 3.05 3.17 3.29 3.29 3.32 3.29 3.25 3.18 3.13 3.09 2.76 2.69 2.49 2.54 2.55 2.63 2.66 2.63 2.45 2.61 2.57 2.48 2.41 2.25 2.06
1.40 1.48 1.52 1.57 1.78 1.84 1.91 2.10 2.33 2.50 2.68 2.85 2.95 3.02 3.07 3.07 3.03 3.04 3.16 3.25 3.32 3.35 3.38 3.26 3.26 3.17 3.10 3.21 2.95 2.77 2.49 2.50 2.55 2.69 2.74 2.73 2.50 2.57 2.51 2.38 2.36 2.20 2.12
1.61 1.64 1.68 1.78 1.92 1.99 2.07 2.25 2.53 2.78 2.98 3.02 3.07 3.13 3.23 3.40 3.53 3.56 3.38 3.24 3.25 3.35 3.39 3.33 3.36 3.32 3.24 3.23 2.87 2.71 2.56 2.59 2.64 2.61 2.58 2.62 2.67 2.40 2.24 2.12 2.07 2.12 2.27
1.79 1.82 1.86 1.90 1.95 2.08 2.22 2.32 2.58 2.72 2.92 2.96 3.08 3.17 3.21 3.16 3.18 3.48 3.57 3.54 3.42 3.29 3.27 3.32 3.23 3.12 3.06 2.90 2.57 2.37 2.35 2.43 2.45 2.45 2.48 2.54 2.57 2.27 2.03 1.79 1.72 1.84 1.90
1.76 1.75 1.82 1.95 1.95 1.98 2.18 2.46 2.54 2.62 2.66 2.79 2.92 3.13 3.24 3.31 3.29 3.30 3.40 3.42 3.34 3.13 2.90 2.92 2.95 2.93 2.92 2.81 2.51 2.21 2.11 2.16 2.09 2.16 2.41 2.46 2.32 2.12 1.95 1.83 1.78 1.71 1.63
1.72 1.78 1.74 1.77 1.89 1.99 2.19 2.30 2.34 2.49 2.75 2.87 2.91 2.98 3.07 3.12 3.20 3.30 3.27 3.22 3.19 3.11 2.93 2.90 2.91 2.91 2.84 2.62 2.32 2.14 2.06 2.03 1.98 2.07 2.30 2.40 2.38 2.22 2.07 1.95 1.80 1.60 1.56
1.64 1.73 1.83 1.86 1.93 2.00 2.17 2.33 2.38 2.44 2.59 2.68 2.66 2.74 2.89 2.98 3.06 3.20 3.27 3.12 3.01 3.02 2.91 2.94 3.10 3.00 2.74 2.53 2.36 2.10 2.01 2.00 2.09 2.17 2.26 2.40 2.44 2.40 2.30 2.12 1.98 1.85 1.72
1.61 1.76 1.84 1.92 1.98 2.03 2.11 2.18 2.26 2.40 2.54 2.61 2.64 2.63 2.67 2.82 2.91 2.88 2.94 2.97 2.73 2.66 2.48 2.51 2.59 2.58 2.46 2.35 2.26 2.13 2.05 2.03 2.07 2.06 2.12 2.39 2.45 2.46 2.44 2.31 2.12 1.96 1.84